EZY62NY LFBD-EGKK

Flight info

Callsign EZY62NY
Flight time 1h 11m
Altitude 32000
Route CNA DCT MANAK UY110 REN UP87 REVTU UP88 VASUX
Aircraft A320/M-SDE3FGHIRWY/LB1

Departure

Time 2026-05-05 20:16
Airport Bordeaux–Mérignac Airport (LFBD)

Arrival

Time 2026-05-05 21:28
Airport London Gatwick Airport (EGKK)
Time Latitude Longitude Altitude Speed Heading
2026-05-05 19:21 44.82859 -0.69976 169 ft 0 kts 15°
2026-05-05 19:44 44.82858 -0.69976 142 ft 0 kts 15°
2026-05-05 20:09 44.82847 -0.69981 169 ft 4 kts 11°
2026-05-05 20:09 44.82820 -0.69983 169 ft 4 kts 345°
2026-05-05 20:10 44.82800 -0.69966 169 ft 3 kts 290°
2026-05-05 20:10 44.82799 -0.69961 169 ft 1 kts 286°
2026-05-05 20:12 44.82805 -0.69990 169 ft 8 kts 286°
2026-05-05 20:12 44.82834 -0.70126 169 ft 18 kts 287°
2026-05-05 20:12 44.82869 -0.70298 169 ft 19 kts 285°
2026-05-05 20:13 44.82879 -0.70474 170 ft 18 kts 245°
2026-05-05 20:13 44.82881 -0.70645 170 ft 20 kts 286°
2026-05-05 20:13 44.82920 -0.70842 170 ft 22 kts 286°
2026-05-05 20:13 44.82995 -0.70901 169 ft 18 kts 38°
2026-05-05 20:14 44.83112 -0.70734 168 ft 27 kts 46°
2026-05-05 20:14 44.83251 -0.70533 166 ft 30 kts 45°
2026-05-05 20:14 44.83409 -0.70310 164 ft 33 kts 45°
2026-05-05 20:14 44.83570 -0.70085 162 ft 27 kts 47°
2026-05-05 20:15 44.83646 -0.70006 161 ft 17 kts
2026-05-05 20:15 44.83707 -0.70034 161 ft 2 kts 336°
2026-05-05 20:15 44.83782 -0.70090 160 ft 21 kts 315°
2026-05-05 20:15 44.83749 -0.70270 162 ft 26 kts 226°
2026-05-05 20:16 44.83453 -0.70696 166 ft 93 kts 225°
2026-05-05 20:16 44.82870 -0.71531 170 ft 145 kts 225°
2026-05-05 20:16 44.82086 -0.72666 417 ft 169 kts 226°
2026-05-05 20:16 44.81263 -0.73850 1182 ft 168 kts 227°
2026-05-05 20:17 44.80421 -0.75049 1741 ft 179 kts 228°
2026-05-05 20:17 44.79502 -0.76366 2010 ft 202 kts 228°
2026-05-05 20:17 44.78525 -0.77939 2350 ft 225 kts 243°
2026-05-05 20:17 44.78259 -0.80130 2793 ft 242 kts 282°
2026-05-05 20:18 44.79112 -0.82191 3547 ft 252 kts 320°
2026-05-05 20:18 44.80727 -0.83139 4404 ft 261 kts 352°
2026-05-05 20:18 44.82558 -0.83079 5318 ft 265 kts
2026-05-05 20:18 44.84402 -0.82727 6194 ft 269 kts
2026-05-05 20:19 44.86256 -0.82593 6992 ft 272 kts 355°
2026-05-05 20:19 44.88162 -0.82747 7832 ft 275 kts 355°
2026-05-05 20:19 44.90083 -0.82906 8658 ft 278 kts 355°
2026-05-05 20:19 44.92029 -0.83067 9495 ft 282 kts 355°
2026-05-05 20:20 44.94001 -0.83232 10262 ft 287 kts 355°
2026-05-05 20:20 44.96064 -0.83408 10562 ft 309 kts 355°
2026-05-05 20:20 44.98284 -0.83598 10879 ft 327 kts 355°
2026-05-05 20:20 45.00595 -0.83791 11517 ft 334 kts 355°
2026-05-05 20:21 45.02141 -0.83921 11994 ft 337 kts 355°
2026-05-05 20:21 45.04493 -0.84121 12715 ft 341 kts 355°
2026-05-05 20:21 45.07663 -0.84388 13659 ft 346 kts 355°
2026-05-05 20:21 45.10074 -0.84587 14283 ft 350 kts 355°
2026-05-05 20:22 45.12522 -0.84789 14915 ft 353 kts 355°
2026-05-05 20:22 45.14989 -0.84995 15555 ft 356 kts 355°
2026-05-05 20:22 45.16658 -0.85138 15982 ft 358 kts 355°
2026-05-05 20:22 45.19126 -0.85348 16616 ft 361 kts 355°
2026-05-05 20:23 45.21635 -0.85566 17244 ft 363 kts 355°
2026-05-05 20:23 45.24169 -0.85786 17881 ft 366 kts 355°
2026-05-05 20:23 45.26721 -0.86008 18447 ft 369 kts 355°
2026-05-05 20:23 45.29298 -0.86229 18993 ft 372 kts 356°
2026-05-05 20:24 45.31891 -0.86450 19518 ft 375 kts 356°
2026-05-05 20:24 45.34508 -0.86670 20042 ft 377 kts 356°
2026-05-05 20:24 45.37147 -0.86889 20537 ft 380 kts 356°
2026-05-05 20:24 45.39806 -0.87112 21047 ft 383 kts 356°
2026-05-05 20:25 45.42449 -0.87337 21526 ft 386 kts 356°
2026-05-05 20:25 45.45149 -0.87569 22014 ft 389 kts 356°
2026-05-05 20:25 45.47870 -0.87805 22493 ft 392 kts 356°
2026-05-05 20:25 45.50609 -0.88044 22970 ft 395 kts 356°
2026-05-05 20:26 45.53363 -0.88283 23437 ft 398 kts 357°
2026-05-05 20:26 45.56139 -0.88522 23827 ft 401 kts 357°
2026-05-05 20:26 45.58930 -0.88760 24211 ft 403 kts 357°
2026-05-05 20:26 45.61743 -0.88999 24607 ft 405 kts 358°
2026-05-05 20:27 45.64557 -0.89238 24986 ft 407 kts 358°
2026-05-05 20:27 45.67365 -0.89478 25348 ft 409 kts 358°
2026-05-05 20:27 45.70230 -0.89728 25716 ft 412 kts 358°
2026-05-05 20:27 45.73094 -0.89979 26077 ft 414 kts 358°
2026-05-05 20:28 45.75980 -0.90230 26427 ft 416 kts 358°
2026-05-05 20:28 45.78888 -0.90482 26788 ft 419 kts 358°
2026-05-05 20:28 45.81810 -0.90732 27146 ft 421 kts 358°
2026-05-05 20:28 45.84707 -0.90978 27505 ft 423 kts 358°
2026-05-05 20:29 45.87650 -0.91231 27857 ft 424 kts 358°
2026-05-05 20:29 45.90605 -0.91489 28215 ft 426 kts 358°
2026-05-05 20:29 45.93579 -0.91753 28568 ft 428 kts 358°
2026-05-05 20:29 45.96566 -0.92017 28925 ft 430 kts 359°
2026-05-05 20:30 45.99555 -0.92281 29277 ft 431 kts 359°
2026-05-05 20:30 46.02554 -0.92543 29613 ft 432 kts 359°
2026-05-05 20:30 46.05527 -0.92801 29950 ft 433 kts 359°
2026-05-05 20:30 46.08542 -0.93060 30231 ft 435 kts 360°
2026-05-05 20:31 46.11568 -0.93320 30467 ft 437 kts 359°
2026-05-05 20:31 46.14615 -0.93581 30692 ft 439 kts 359°
2026-05-05 20:31 46.17677 -0.94058 30908 ft 444 kts 352°
2026-05-05 20:31 46.20670 -0.95253 31193 ft 447 kts 342°
2026-05-05 20:32 46.23511 -0.97147 31498 ft 451 kts 332°
2026-05-05 20:32 46.26082 -0.99659 31789 ft 454 kts 323°
2026-05-05 20:32 46.28548 -1.02513 31901 ft 452 kts 323°
2026-05-05 20:32 46.30966 -1.05317 31917 ft 441 kts 323°
2026-05-05 20:33 46.33349 -1.08084 31918 ft 437 kts 323°
2026-05-05 20:33 46.38079 -1.13581 31915 ft 435 kts 323°
2026-05-05 20:34 46.42801 -1.19070 31914 ft 435 kts 323°
2026-05-05 20:34 46.47487 -1.24535 31914 ft 435 kts 323°
2026-05-05 20:35 46.52202 -1.30043 31912 ft 435 kts 323°
2026-05-05 20:35 46.56917 -1.35571 31911 ft 434 kts 323°
2026-05-05 20:36 46.61852 -1.40473 31907 ft 430 kts 336°
2026-05-05 20:36 46.67256 -1.44279 31902 ft 431 kts 336°
2026-05-05 20:37 46.72656 -1.48098 31902 ft 431 kts 336°
2026-05-05 20:37 46.78024 -1.51913 31899 ft 431 kts 336°
2026-05-05 20:38 46.83426 -1.55767 31895 ft 432 kts 336°
2026-05-05 20:38 46.89088 -1.58443 31904 ft 426 kts 354°
2026-05-05 20:39 46.94940 -1.59115 31888 ft 424 kts 359°
2026-05-05 20:39 47.00845 -1.59711 31900 ft 424 kts 358°
2026-05-05 20:40 47.06742 -1.60328 31896 ft 424 kts 358°
2026-05-05 20:40 47.12646 -1.60946 31896 ft 424 kts 358°
2026-05-05 20:41 47.18508 -1.61568 31899 ft 424 kts 358°
2026-05-05 20:41 47.24399 -1.62352 31912 ft 425 kts 356°
2026-05-05 20:42 47.30286 -1.63193 31899 ft 425 kts 357°
2026-05-05 20:42 47.36133 -1.64006 31898 ft 425 kts 357°
2026-05-05 20:43 47.42029 -1.64834 31901 ft 425 kts 357°
2026-05-05 20:43 47.47911 -1.65678 31904 ft 424 kts 357°
2026-05-05 20:44 47.53761 -1.66514 31901 ft 424 kts 357°
2026-05-05 20:44 47.59639 -1.67354 31905 ft 424 kts 357°
2026-05-05 20:45 47.68467 -1.68611 31904 ft 424 kts 357°
2026-05-05 20:45 47.74342 -1.69449 31906 ft 424 kts 356°
2026-05-05 20:46 47.80186 -1.70297 31913 ft 424 kts 356°
2026-05-05 20:46 47.86085 -1.71144 31920 ft 424 kts 356°
2026-05-05 20:47 47.91975 -1.71992 31924 ft 425 kts 356°
2026-05-05 20:47 47.97828 -1.72832 31931 ft 425 kts 356°
2026-05-05 20:48 48.03731 -1.73695 31931 ft 425 kts 356°
2026-05-05 20:48 48.09628 -1.74187 31938 ft 424 kts
2026-05-05 20:49 48.15492 -1.74248 31937 ft 424 kts
2026-05-05 20:49 48.21394 -1.74329 31934 ft 424 kts
2026-05-05 20:50 48.27294 -1.74412 31938 ft 424 kts
2026-05-05 20:50 48.33194 -1.74490 31935 ft 423 kts
2026-05-05 20:51 48.39057 -1.74557 31940 ft 423 kts
2026-05-05 20:51 48.44947 -1.74617 31944 ft 423 kts
2026-05-05 20:52 48.50841 -1.74686 31945 ft 423 kts
2026-05-05 20:52 48.56744 -1.74767 31947 ft 423 kts
2026-05-05 20:53 48.62604 -1.74843 31948 ft 423 kts
2026-05-05 20:53 48.68511 -1.74914 31944 ft 424 kts
2026-05-05 20:54 48.74427 -1.74985 31946 ft 424 kts
2026-05-05 20:54 48.80291 -1.75057 31944 ft 424 kts
2026-05-05 20:55 48.86188 -1.75128 31936 ft 424 kts
2026-05-05 20:55 48.92001 -1.75193 31937 ft 424 kts
2026-05-05 20:56 48.97951 -1.75035 31936 ft 423 kts
2026-05-05 20:56 49.03841 -1.74745 31935 ft 423 kts
2026-05-05 20:57 49.09546 -1.74485 31935 ft 423 kts
2026-05-05 20:57 49.15391 -1.74251 31941 ft 423 kts
2026-05-05 20:58 49.21287 -1.74025 31939 ft 424 kts
2026-05-05 20:58 49.27204 -1.73808 31944 ft 424 kts
2026-05-05 20:59 49.33067 -1.73591 31940 ft 424 kts
2026-05-05 20:59 49.38976 -1.73367 31944 ft 424 kts
2026-05-05 21:00 49.44882 -1.73128 31947 ft 424 kts
2026-05-05 21:00 49.50790 -1.72900 31956 ft 424 kts
2026-05-05 21:01 49.56627 -1.72675 31957 ft 424 kts
2026-05-05 21:01 49.62407 -1.71090 31954 ft 423 kts 20°
2026-05-05 21:02 49.67944 -1.68009 31956 ft 423 kts 20°
2026-05-05 21:02 49.73494 -1.64943 31962 ft 423 kts 20°
2026-05-05 21:03 49.79051 -1.61870 31957 ft 423 kts 20°
2026-05-05 21:03 49.84565 -1.58816 31953 ft 423 kts 20°
2026-05-05 21:04 49.90104 -1.55753 31691 ft 417 kts 20°
2026-05-05 21:04 49.92823 -1.54237 31364 ft 411 kts 20°
2026-05-05 21:04 49.95506 -1.52736 30882 ft 408 kts 20°
2026-05-05 21:05 49.98171 -1.51242 30381 ft 406 kts 20°
2026-05-05 21:05 50.00827 -1.49762 29870 ft 403 kts 19°
2026-05-05 21:05 50.03477 -1.48384 29372 ft 399 kts 18°
2026-05-05 21:05 50.06087 -1.47107 28907 ft 395 kts 17°
2026-05-05 21:06 50.08698 -1.45870 28456 ft 390 kts 17°
2026-05-05 21:06 50.11283 -1.44654 28008 ft 385 kts 17°
2026-05-05 21:06 50.13841 -1.43443 27573 ft 381 kts 17°
2026-05-05 21:06 50.16368 -1.42230 27139 ft 377 kts 17°
2026-05-05 21:07 50.18853 -1.41023 26730 ft 372 kts 17°
2026-05-05 21:07 50.21305 -1.39820 26314 ft 368 kts 17°
2026-05-05 21:07 50.23708 -1.38632 25926 ft 364 kts 17°
2026-05-05 21:07 50.26115 -1.37436 25492 ft 362 kts 17°
2026-05-05 21:08 50.28516 -1.36247 25067 ft 359 kts 17°
2026-05-05 21:08 50.30896 -1.35069 24635 ft 357 kts 17°
2026-05-05 21:08 50.33264 -1.33897 24197 ft 355 kts 17°
2026-05-05 21:08 50.35619 -1.32732 23745 ft 353 kts 17°
2026-05-05 21:09 50.37933 -1.31588 23269 ft 352 kts 17°
2026-05-05 21:09 50.40259 -1.30441 22803 ft 350 kts 17°
2026-05-05 21:09 50.42582 -1.29292 22357 ft 347 kts 17°
2026-05-05 21:09 50.44106 -1.28534 22061 ft 346 kts 17°
2026-05-05 21:10 50.46406 -1.27385 21622 ft 344 kts 17°
2026-05-05 21:10 50.48671 -1.26222 21189 ft 342 kts 20°
2026-05-05 21:10 50.50803 -1.24559 20757 ft 341 kts 32°
2026-05-05 21:10 50.52684 -1.22311 20325 ft 340 kts 39°
2026-05-05 21:11 50.54490 -1.19925 19899 ft 338 kts 39°
2026-05-05 21:11 50.56270 -1.17583 19478 ft 337 kts 39°
2026-05-05 21:11 50.58077 -1.15211 19052 ft 336 kts 39°
2026-05-05 21:11 50.59871 -1.12852 18633 ft 336 kts 39°
2026-05-05 21:12 50.61664 -1.10488 18211 ft 335 kts 39°
2026-05-05 21:12 50.63458 -1.08122 17753 ft 334 kts 39°
2026-05-05 21:12 50.65207 -1.05811 17348 ft 332 kts 40°
2026-05-05 21:12 50.66799 -1.03179 16941 ft 330 kts 50°
2026-05-05 21:13 50.68247 -1.00384 16531 ft 328 kts 50°
2026-05-05 21:13 50.69682 -0.97622 16136 ft 327 kts 50°
2026-05-05 21:13 50.71125 -0.94846 15740 ft 326 kts 50°
2026-05-05 21:13 50.72545 -0.92113 15346 ft 325 kts 50°
2026-05-05 21:14 50.73980 -0.89345 14951 ft 324 kts 50°
2026-05-05 21:14 50.75402 -0.86596 14563 ft 324 kts 50°
2026-05-05 21:14 50.76825 -0.83830 14246 ft 320 kts 50°
2026-05-05 21:14 50.78144 -0.81052 14038 ft 314 kts 61°
2026-05-05 21:15 50.78880 -0.77824 13726 ft 312 kts 75°
2026-05-05 21:15 50.79391 -0.74480 13343 ft 311 kts 76°
2026-05-05 21:15 50.79868 -0.71196 12996 ft 309 kts 76°
2026-05-05 21:15 50.80343 -0.67891 12648 ft 307 kts 76°
2026-05-05 21:16 50.80813 -0.64584 12198 ft 309 kts 76°
2026-05-05 21:16 50.81283 -0.61250 11684 ft 312 kts 76°
2026-05-05 21:16 50.81753 -0.57876 11180 ft 315 kts 76°
2026-05-05 21:16 50.82216 -0.54522 10690 ft 317 kts 76°
2026-05-05 21:17 50.82683 -0.51102 10202 ft 318 kts 76°
2026-05-05 21:17 50.83145 -0.47678 9707 ft 319 kts 76°
2026-05-05 21:17 50.83606 -0.44233 9174 ft 320 kts 76°
2026-05-05 21:17 50.84068 -0.40786 8643 ft 319 kts 76°
2026-05-05 21:18 50.84529 -0.37344 8123 ft 319 kts 76°
2026-05-05 21:18 50.84976 -0.33994 7624 ft 317 kts 76°
2026-05-05 21:18 50.85414 -0.30696 7126 ft 304 kts 76°
2026-05-05 21:18 50.85837 -0.27476 6626 ft 291 kts 75°
2026-05-05 21:19 50.86576 -0.24582 6146 ft 279 kts 51°
2026-05-05 21:19 50.88006 -0.22684 6002 ft 264 kts 23°
2026-05-05 21:19 50.89776 -0.22163 6009 ft 259 kts 355°
2026-05-05 21:19 50.91529 -0.22839 6014 ft 260 kts 342°
2026-05-05 21:20 50.93228 -0.23766 6015 ft 261 kts 341°
2026-05-05 21:20 50.94932 -0.24729 6016 ft 261 kts 341°
2026-05-05 21:20 50.96651 -0.25707 6017 ft 261 kts 341°
2026-05-05 21:20 50.98364 -0.26682 6017 ft 261 kts 341°
2026-05-05 21:21 51.00078 -0.27656 6019 ft 261 kts 340°
2026-05-05 21:21 51.01541 -0.29136 6016 ft 264 kts 314°
2026-05-05 21:21 51.02470 -0.31642 5745 ft 265 kts 287°
2026-05-05 21:21 51.02749 -0.34414 5308 ft 267 kts 277°
2026-05-05 21:22 51.02899 -0.37365 4881 ft 267 kts 276°
2026-05-05 21:22 51.03034 -0.40314 4495 ft 264 kts 276°
2026-05-05 21:22 51.03240 -0.43063 4369 ft 242 kts 290°
2026-05-05 21:22 51.04080 -0.45178 4229 ft 216 kts 324°
2026-05-05 21:23 51.05351 -0.46303 4114 ft 205 kts 339°
2026-05-05 21:23 51.06655 -0.47125 3990 ft 198 kts 344°
2026-05-05 21:23 51.07981 -0.47180 3848 ft 189 kts 21°
2026-05-05 21:23 51.09085 -0.46116 3723 ft 183 kts 38°
2026-05-05 21:24 51.10048 -0.44831 3532 ft 179 kts 41°
2026-05-05 21:24 51.10979 -0.43510 3210 ft 180 kts 46°
2026-05-05 21:24 51.11625 -0.41823 2946 ft 180 kts 71°
2026-05-05 21:24 51.11909 -0.39907 2709 ft 180 kts 77°
2026-05-05 21:25 51.12180 -0.37965 2464 ft 179 kts 77°
2026-05-05 21:25 51.12449 -0.36037 2220 ft 178 kts 77°
2026-05-05 21:25 51.12716 -0.34126 1968 ft 174 kts 77°
2026-05-05 21:25 51.12973 -0.32289 1755 ft 164 kts 77°
2026-05-05 21:26 51.13215 -0.30550 1519 ft 161 kts 77°
2026-05-05 21:26 51.13448 -0.28874 1319 ft 146 kts 77°
2026-05-05 21:26 51.13657 -0.27373 1112 ft 137 kts 77°
2026-05-05 21:26 51.13856 -0.25944 920 ft 135 kts 77°
2026-05-05 21:27 51.14057 -0.24495 733 ft 133 kts 77°
2026-05-05 21:27 51.14258 -0.23054 569 ft 133 kts 76°
2026-05-05 21:27 51.14462 -0.21619 377 ft 132 kts 77°
2026-05-05 21:27 51.14656 -0.20205 231 ft 131 kts 77°
2026-05-05 21:28 51.14832 -0.18937 213 ft 96 kts 77°
2026-05-05 21:28 51.14936 -0.18168 211 ft 47 kts 76°
2026-05-05 21:28 51.15047 -0.17821 208 ft 28 kts 51°
2026-05-05 21:28 51.15170 -0.17768 205 ft 15 kts 351°
2026-05-05 21:29 51.15239 -0.17803 211 ft 8 kts 307°
2026-05-05 21:29 51.15235 -0.17925 205 ft 15 kts 257°
2026-05-05 21:29 51.15226 -0.18060 205 ft 13 kts 292°
2026-05-05 21:29 51.15310 -0.18126 205 ft 14 kts 349°
2026-05-05 21:30 51.15409 -0.18160 205 ft 16 kts 347°
2026-05-05 21:30 51.15522 -0.18202 208 ft 19 kts 347°
2026-05-05 21:30 51.15649 -0.18231 205 ft 16 kts 26°
2026-05-05 21:30 51.15684 -0.18071 206 ft 16 kts 78°
2026-05-05 21:31 51.15707 -0.17909 214 ft 11 kts 78°
2026-05-05 21:31 51.15662 -0.17861 216 ft 6 kts 169°
2026-05-05 21:31 51.15643 -0.17855 212 ft 2 kts 168°
2026-05-05 21:31 51.15641 -0.17855 211 ft 0 kts 168°
2026-05-05 21:32 51.15640 -0.17854 211 ft 0 kts 168°